�������l�o���
Date,Time,MP-1(��Sv/h),MP-2(��Sv/h),MP-3(��Sv/h),MP-4(��Sv/h),MP-5(��Sv/h),MP-6(��Sv/h),MP-7(��Sv/h),����,����(m/s),���J
2015/09/30,00:00,0.488,0.283,0.504,0.462,0.451,0.226,0.197,�k�k��,8.5,��
2015/09/30,00:10,0.486,0.281,0.506,0.465,0.455,0.227,0.198,�k�k��,10.6,��
2015/09/30,00:20,0.487,0.282,0.504,0.464,0.452,0.227,0.198,�k�k��,9.5,��
2015/09/30,00:30,0.484,0.280,0.505,0.466,0.452,0.228,0.196,�k�k��,8.1,��
2015/09/30,00:40,0.489,0.282,0.503,0.462,0.453,0.226,0.198,�k�k��,7.3,��
2015/09/30,00:50,0.486,0.281,0.506,0.465,0.452,0.226,0.198,�k��,7.4,��
2015/09/30,01:00,0.489,0.282,0.504,0.463,0.454,0.227,0.197,�k�k��,6.6,��
2015/09/30,01:10,0.485,0.281,0.506,0.463,0.453,0.227,0.197,�k��,7.0,��
2015/09/30,01:20,0.487,0.280,0.504,0.465,0.455,0.226,0.196,�k��,7.3,��
2015/09/30,01:30,0.484,0.282,0.504,0.463,0.450,0.226,0.198,�k��,7.0,��
2015/09/30,01:40,0.486,0.280,0.505,0.465,0.454,0.227,0.197,���k��,6.1,��
2015/09/30,01:50,0.484,0.282,0.504,0.462,0.452,0.226,0.197,�k��,5.3,��
2015/09/30,02:00,0.487,0.280,0.505,0.464,0.452,0.227,0.196,�k��,5.3,��
2015/09/30,02:10,0.484,0.283,0.503,0.462,0.453,0.226,0.197,���k��,4.5,��
2015/09/30,02:20,0.488,0.281,0.504,0.465,0.451,0.228,0.197,���k��,2.9,��
2015/09/30,02:30,0.485,0.282,0.504,0.461,0.453,0.226,0.196,�k�k��,4.7,��
2015/09/30,02:40,0.487,0.281,0.504,0.465,0.452,0.225,0.196,�k�k��,4.8,��
2015/09/30,02:50,0.484,0.281,0.503,0.463,0.452,0.226,0.196,�k��,3.7,��
2015/09/30,03:00,0.488,0.280,0.505,0.465,0.448,0.225,0.197,�k��,3.4,��
2015/09/30,03:10,0.484,0.282,0.501,0.462,0.454,0.227,0.197,�k�k��,4.2,��
2015/09/30,03:20,0.489,0.281,0.504,0.465,0.451,0.226,0.196,�k�k��,3.9,��
2015/09/30,03:30,0.483,0.280,0.503,0.461,0.454,0.226,0.197,�k�k��,2.5,��
2015/09/30,03:40,0.489,0.281,0.507,0.465,0.450,0.226,0.197,�k,3.1,��
2015/09/30,03:50,0.484,0.281,0.501,0.462,0.453,0.226,0.197,�k,2.5,��
2015/09/30,04:00,0.489,0.283,0.507,0.465,0.450,0.226,0.198,�k�k��,2.3,��
2015/09/30,04:10,0.483,0.281,0.501,0.463,0.451,0.227,0.198,�k�k��,1.3,��
2015/09/30,04:20,0.486,0.282,0.506,0.464,0.452,0.227,0.196,�k,1.6,��
2015/09/30,04:30,0.484,0.281,0.501,0.463,0.450,0.225,0.196,�k,1.8,��
2015/09/30,04:40,0.485,0.281,0.507,0.463,0.452,0.228,0.197,���k��,1.2,��
2015/09/30,04:50,0.486,0.282,0.504,0.464,0.451,0.226,0.197,-,CALM,��
2015/09/30,05:00,0.484,0.280,0.505,0.463,0.452,0.226,0.196,�k�k��,2.3,��
2015/09/30,05:10,0.487,0.281,0.504,0.465,0.451,0.227,0.197,�k,2.3,��
2015/09/30,05:20,0.485,0.282,0.505,0.462,0.450,0.226,0.196,�k�k��,2.0,��
2015/09/30,05:30,0.487,0.280,0.504,0.465,0.451,0.226,0.197,�k��,2.2,��
2015/09/30,05:40,0.483,0.283,0.503,0.463,0.451,0.226,0.196,�k�k��,1.9,��
2015/09/30,05:50,0.488,0.280,0.506,0.464,0.453,0.226,0.197,�k,2.1,��
2015/09/30,06:00,0.484,0.282,0.502,0.463,0.449,0.226,0.196,�k�k��,1.9,��
2015/09/30,06:10,0.487,0.281,0.506,0.461,0.452,0.225,0.195,�k��,2.0,��
2015/09/30,06:20,0.485,0.279,0.501,0.463,0.450,0.227,0.197,�k��,1.9,��
2015/09/30,06:30,0.485,0.281,0.505,0.462,0.449,0.226,0.197,���k��,2.7,��
2015/09/30,06:40,0.485,0.281,0.503,0.465,0.453,0.226,0.196,���k��,2.2,��
2015/09/30,06:50,0.483,0.282,0.505,0.462,0.449,0.227,0.198,��,3.5,��
2015/09/30,07:00,0.486,0.282,0.504,0.463,0.452,0.226,0.196,��,2.8,��
2015/09/30,07:10,0.485,0.280,0.503,0.460,0.450,0.226,0.195,��,1.7,��
2015/09/30,07:20,0.487,0.282,0.506,0.463,0.452,0.226,0.197,���k��,0.7,��
2015/09/30,07:30,0.482,0.280,0.500,0.461,0.449,0.226,0.195,�k��,1.6,��
2015/09/30,07:40,0.487,0.282,0.505,0.463,0.451,0.226,0.196,�k,2.7,��
2015/09/30,07:50,0.486,0.280,0.503,0.460,0.448,0.226,0.197,�k,2.2,��
2015/09/30,08:00,0.487,0.282,0.507,0.464,0.453,0.227,0.197,�k,1.6,��
2015/09/30,08:10,0.483,0.279,0.500,0.458,0.449,0.226,0.195,�k�k��,4.5,��
2015/09/30,08:20,0.487,0.281,0.506,0.465,0.453,0.226,0.194,�k�k��,5.0,��
2015/09/30,08:30,0.483,0.278,0.501,0.461,0.446,0.227,0.195,�k,6.0,��
2015/09/30,08:40,0.487,0.277,0.507,0.458,0.455,0.225,0.197,�k�k��,4.5,��
2015/09/30,08:50,0.482,0.279,0.501,0.463,0.449,0.227,0.196,�k�k��,5.3,��
2015/09/30,09:00,0.488,0.280,0.506,0.459,0.447,0.225,0.195,�k�k��,5.3,��
2015/09/30,09:10,0.485,0.278,0.501,0.456,0.451,0.224,0.195,�k��,2.8,��
2015/09/30,09:20,0.480,0.278,0.503,0.455,0.446,0.225,0.195,�k��,3.5,��
2015/09/30,09:30,0.485,0.281,0.504,0.463,0.444,0.225,0.195,�k��,3.8,��
2015/09/30,09:40,0.482,0.281,0.501,0.463,0.451,0.225,0.194,�k�k��,4.2,��
2015/09/30,09:50,0.481,0.279,0.504,0.461,0.452,0.226,0.195,�k��,3.2,��
2015/09/30,10:00,-,-,-,-,-,-,-,-,-,-
2015/09/30,10:10,0.481,0.277,0.505,0.459,0.447,0.226,0.195,�k�k��,5.0,��
2015/09/30,10:20,0.488,0.278,0.504,0.458,0.445,0.227,0.195,�k�k��,5.2,��
2015/09/30,10:30,0.486,0.282,0.501,0.459,0.453,0.226,0.196,�k��,4.8,��
2015/09/30,10:40,0.483,0.282,0.505,0.458,0.452,0.224,0.195,���k��,2.7,��
2015/09/30,10:50,0.480,0.280,0.501,0.459,0.449,0.226,0.196,�k�k��,4.6,��
2015/09/30,11:00,0.481,0.279,0.497,0.459,0.448,0.228,0.198,�k��,7.0,��
2015/09/30,11:10,0.488,0.280,0.496,0.461,0.448,0.227,0.198,���k��,5.4,��
2015/09/30,11:20,0.487,0.283,0.504,0.461,0.453,0.227,0.197,�k�k��,6.1,��
2015/09/30,11:30,0.484,0.282,0.504,0.462,0.453,0.227,0.196,�k�k��,6.4,��
2015/09/30,11:40,0.482,0.281,0.501,0.463,0.450,0.225,0.197,�k�k��,6.6,��
2015/09/30,11:50,0.486,0.278,0.500,0.464,0.450,0.226,0.197,�k��,6.9,��
2015/09/30,12:00,0.490,0.282,0.498,0.464,0.449,0.226,0.197,�k�k��,6.6,��
2015/09/30,12:10,0.487,0.281,0.500,0.464,0.448,0.228,0.197,�k,6.1,��
2015/09/30,12:20,0.483,0.280,0.506,0.463,0.451,0.226,0.197,�k��,4.3,��
2015/09/30,12:30,0.489,0.281,0.507,0.462,0.454,0.226,0.197,�k�k��,3.9,��
2015/09/30,12:40,0.488,0.281,0.505,0.461,0.453,0.227,0.196,�k�k��,3.6,��
2015/09/30,12:50,0.485,0.282,0.501,0.466,0.453,0.227,0.196,�쓌,2.7,��
2015/09/30,13:00,0.486,0.283,0.499,0.466,0.451,0.227,0.197,���쓌,4.8,��
2015/09/30,13:10,0.492,0.282,0.505,0.466,0.448,0.227,0.197,���쓌,3.6,��
2015/09/30,13:20,0.488,0.282,0.507,0.463,0.447,0.229,0.199,�쓌,4.4,��
2015/09/30,13:30,0.483,0.282,0.505,0.461,0.447,0.228,0.197,��쓌,3.9,��
2015/09/30,13:40,0.488,0.282,0.503,0.461,0.455,0.227,0.196,��쓌,3.3,��
2015/09/30,13:50,0.490,0.280,0.500,0.465,0.454,0.227,0.196,��쓌,3.4,��
2015/09/30,14:00,0.487,0.279,0.499,0.471,0.453,0.227,0.198,�쓌,3.9,��
2015/09/30,14:10,0.485,0.279,0.504,0.468,0.449,0.228,0.197,��쓌,3.1,��
2015/09/30,14:20,0.490,0.281,0.508,0.464,0.449,0.228,0.197,�쓌,4.2,��
2015/09/30,14:30,0.485,0.283,0.505,0.471,0.456,0.227,0.198,�쓌,3.9,��
2015/09/30,14:40,0.486,0.282,0.502,0.465,0.457,0.227,0.199,��쓌,3.9,��
2015/09/30,14:50,0.489,0.281,0.507,0.463,0.453,0.228,0.197,��쓌,2.8,��
2015/09/30,15:00,0.486,0.283,0.510,0.472,0.457,0.228,0.200,��쓌,3.0,��
2015/09/30,15:10,0.487,0.281,0.504,0.464,0.458,0.227,0.199,��쓌,4.2,��
2015/09/30,15:20,0.490,0.282,0.511,0.467,0.450,0.226,0.197,��쓌,4.1,��
2015/09/30,15:30,0.485,0.284,0.509,0.468,0.456,0.227,0.199,��,3.9,��
2015/09/30,15:40,0.490,0.282,0.505,0.464,0.453,0.228,0.197,��쓌,3.3,��
2015/09/30,15:50,0.490,0.282,0.510,0.470,0.451,0.227,0.199,��,3.9,��
2015/09/30,16:00,0.484,0.283,0.506,0.465,0.457,0.226,0.198,��,4.0,��
2015/09/30,16:10,0.490,0.282,0.507,0.465,0.451,0.227,0.199,��,3.6,��
2015/09/30,16:20,0.487,0.282,0.509,0.468,0.455,0.228,0.199,��,3.3,��
2015/09/30,16:30,0.489,0.282,0.503,0.466,0.455,0.227,0.198,��,3.5,��
2015/09/30,16:40,0.490,0.284,0.509,0.468,0.452,0.228,0.199,��쓌,3.3,��
2015/09/30,16:50,0.485,0.281,0.505,0.464,0.458,0.227,0.197,��쐼,2.5,��
2015/09/30,17:00,0.490,0.284,0.509,0.468,0.451,0.229,0.198,��,3.1,��
2015/09/30,17:10,0.485,0.281,0.508,0.466,0.456,0.228,0.198,��,2.2,��
2015/09/30,17:20,0.490,0.284,0.504,0.468,0.453,0.228,0.198,���k��,1.0,��
2015/09/30,17:30,0.486,0.281,0.510,0.468,0.455,0.229,0.198,�k��,1.1,��
2015/09/30,17:40,0.490,0.283,0.505,0.465,0.454,0.228,0.198,�k�k��,2.3,��
2015/09/30,17:50,0.487,0.283,0.510,0.468,0.454,0.228,0.198,�k�k��,1.9,��
2015/09/30,18:00,0.488,0.283,0.506,0.466,0.454,0.227,0.198,�k��,2.8,��
2015/09/30,18:10,0.487,0.282,0.511,0.469,0.453,0.227,0.198,���k��,3.3,��
2015/09/30,18:20,0.488,0.285,0.502,0.468,0.453,0.228,0.197,���k��,3.9,��
2015/09/30,18:30,0.488,0.282,0.510,0.469,0.456,0.227,0.199,���k��,5.6,��
2015/09/30,18:40,0.488,0.283,0.507,0.467,0.453,0.228,0.198,�k��,6.2,��
2015/09/30,18:50,0.489,0.282,0.510,0.469,0.453,0.226,0.198,�k�k��,7.5,��
2015/09/30,19:00,0.488,0.282,0.505,0.466,0.453,0.228,0.198,�k�k��,5.7,��
2015/09/30,19:10,0.487,0.284,0.509,0.467,0.453,0.227,0.199,�k�k��,3.7,��
2015/09/30,19:20,0.488,0.283,0.506,0.468,0.453,0.228,0.198,�k��,2.3,��
2015/09/30,19:30,0.488,0.283,0.507,0.468,0.456,0.228,0.198,�k�k��,3.3,��
2015/09/30,19:40,0.485,0.282,0.506,0.467,0.451,0.228,0.199,�k�k��,3.8,��
2015/09/30,19:50,0.488,0.283,0.509,0.468,0.456,0.228,0.199,�k��,2.1,��
2015/09/30,20:00,0.485,0.282,0.507,0.467,0.450,0.227,0.198,�k��,2.3,��
2015/09/30,20:10,0.489,0.283,0.507,0.465,0.456,0.228,0.199,��,1.0,��
2015/09/30,20:20,0.488,0.282,0.506,0.466,0.451,0.228,0.198,�k�k��,1.5,��
2015/09/30,20:30,0.490,0.282,0.507,0.467,0.456,0.228,0.198,�k��,1.1,��
2015/09/30,20:40,0.488,0.282,0.507,0.468,0.452,0.228,0.199,�k��,0.6,��
2015/09/30,20:50,0.488,0.281,0.507,0.465,0.457,0.228,0.199,�k�k��,1.4,��
2015/09/30,21:00,0.488,0.282,0.506,0.467,0.450,0.227,0.199,�k�k��,1.9,��
2015/09/30,21:10,0.489,0.281,0.509,0.466,0.454,0.228,0.199,�k�k��,1.9,��
2015/09/30,21:20,0.487,0.284,0.507,0.469,0.451,0.228,0.198,�k�k��,2.5,��
2015/09/30,21:30,0.488,0.282,0.508,0.465,0.455,0.228,0.198,�k�k��,2.2,��
2015/09/30,21:40,0.488,0.283,0.507,0.468,0.449,0.228,0.198,�k�k��,2.8,��
2015/09/30,21:50,0.489,0.283,0.507,0.465,0.451,0.227,0.200,�k�k��,3.7,��
2015/09/30,22:00,0.488,0.283,0.507,0.469,0.452,0.228,0.198,�k�k��,3.6,��
2015/09/30,22:10,0.486,0.283,0.508,0.465,0.453,0.228,0.198,�k,3.4,��
2015/09/30,22:20,0.490,0.282,0.505,0.469,0.453,0.228,0.199,�k,2.5,��
2015/09/30,22:30,0.488,0.283,0.509,0.465,0.452,0.227,0.199,�k,1.5,��
2015/09/30,22:40,0.489,0.281,0.506,0.469,0.454,0.226,0.199,�k�k��,1.1,��
2015/09/30,22:50,0.487,0.283,0.509,0.465,0.453,0.230,0.198,�k,0.8,��
2015/09/30,23:00,0.487,0.281,0.505,0.468,0.457,0.227,0.199,�k�k��,1.5,��
2015/09/30,23:10,0.487,0.283,0.510,0.466,0.451,0.229,0.199,�k�k��,1.4,��
2015/09/30,23:20,0.490,0.282,0.506,0.467,0.455,0.227,0.199,�k�k��,1.9,��
2015/09/30,23:30,0.486,0.283,0.511,0.466,0.451,0.228,0.198,�k,1.6,��
2015/09/30,23:40,0.490,0.282,0.507,0.467,0.455,0.228,0.199,�k�k��,3.1,��
2015/09/30,23:50,0.487,0.281,0.509,0.469,0.452,0.228,0.199,�k,1.9,��
